Weather in Sabirabad

Azerbaijan     39°59′25″N   48°27′47″E
temp.,
°C
wind,
m/s
gust,
m/s
humid.,
%
clouds,
%
prec.,
mm/h
press.,
hPa
HPBL,
m
17 april, sat
sat1701:00+13ese22605 0.0 102018
04:00+11se11645 0.0 102010
07:00+13sse22585 0.0 102016
10:00+19se22435 0.0 1021691
13:00+24sse11335 0.0 10191066
16:00+26s22285 0.0 10161428
19:00+20sse710423 0.0 1017311
22:00+15se495832 0.0 1019195
18 april, sun
sun1801:00+14e35585 0.0 101986
04:00+14ese34615 0.0 101846
07:00+14se3466100 0.0 1019130
10:00+20se5548100 0.0 1019722
13:00+25sse3336100 0.0 10161160
16:00+27s333014 0.0 10131341
19:00+23s5746100 0.0 1014166
22:00+17se61157100 0.6 1016304
19 april, mon
mon1901:00+16s3666100 0.3 1017171
04:00+15se1173100 0.4 101813
07:00+15sse357246 0.0 1017143
10:00+21sw125643 0.0 1018582
13:00+27wnw243855 0.0 10161479
16:00+28sw2233100 0.0 10131708
19:00+21sse695194 0.0 1014321
22:00+18se51156100 0.0 1015326
20 april, tue
tue2001:00+16e4661100 0.0 1015161
04:00+16e4764100 0.0 1014189
07:00+16ese4867100 0.0 1014273
10:00+22se564898 0.0 1014715
13:00+27sse5434100 0.0 10121145
16:00+28sse5433100 0.0 10101081
19:00+22sse7944100 0.0 1010469
22:00+17ese4856100 0.0 1010190
21 april, wed
wed2101:00+16ene336558 0.0 101055
04:00+15wnw00715 0.0 101011
07:00+17w23625 0.0 101173
10:00+24e33415 0.0 1013614
13:00+28ese87355 0.0 10121143
16:00+27ese9935100 0.0 10121250
19:00+22se81253100 0.1 1015575
22:00+18s5865100 0.1 1015208